URKAURKK

Guest
Details From URKA - Vityazevo
To URKK - Pashkovskiy
Flight Number -
Tags Generated
Created
Modified
Stats Distance 77 nm / 142 km
Max Altitude 0 ft / 0 m
Waypoints 2
Social Downloads 0
Likes 0
Share VATSIM

Download

Looking for another format? Having issues loading an existing format? Contact us
Advertisement - Login to hide

Notes

Generated

Route

URKA URKK

ID Type Via Altitude Latitude Longitude Leg Dist Tot Dist Heading (true) Name
O URKA APT - 0 ft / 0 m 44.99374˚ 37.33714˚ - 0 nm - -
O URKK APT - 0 ft / 0 m 45.02906˚ 39.14142˚ 76 nm 76 nm 88° / 89° -

Altitude Profile

Advertisement - Login to hide

URKA

Details ICAO URKA (AAQ)
Name Vityazevo
Region Russia
Timezone Europe/Moscow (UTC+3.0)
Stats Elevation 173 ft / 53 m (AMSL)
Location 45.001895° 37.347609°
Runways 2
Magnetic Variation 7.214° E

METAR

URKA 231900Z 00000MPS 7000 NSC 17/17 Q1016 R22/010070 TEMPO 1000 TSRA BR BKN005 BKN020CB RMK QFE757/1010

Decode

TAF

TAF TAF URKA 231655Z 2318/2418 04003G08MPS 9999 SCT030CB TEMPO 2318/2321 VRB09G16MPS 3100 -TSRA SCT011 BKN020CB TEMPO 2321/2406 3100 -SHRA BR BKN011 BKN020CB

Decode

Departure Runways

ID Width Length Bearing (true) Bearing (mag) Surface Threshold Offset Overrun Length
04 138 ft / 42 m 7,961 ft / 2,426 m 43.79° 36.58° Concrete 0 ft / 0 m 157 ft / 48 m
04R 312 ft / 95 m 8,009 ft / 2,441 m 43.78° 36.57° Grass 0 ft / 0 m 0 ft / 0 m
22 138 ft / 42 m 7,961 ft / 2,426 m 223.81° 216.60° Concrete 0 ft / 0 m 164 ft / 50 m
22L 312 ft / 95 m 8,009 ft / 2,441 m 223.80° 216.59° Grass 0 ft / 0 m 0 ft / 0 m

URKK

Details ICAO URKK (KRR)
Name PASHKOVSKIY
Region Russia
Timezone Europe/Moscow (UTC+3.0)
Stats Elevation 118 ft / 36 m (AMSL)
Location 45.034644° 39.170454°
Runways 2
Magnetic Variation 7.397° E

METAR

URKK 231900Z 16002MPS 110V250 CAVOK 22/19 Q1016 R23L/CLRD70 TEMPO 2000 TSRA SCT005 BKN020CB RMK QFE759

Decode

TAF

TAF URKK 231658Z 2318/2418 12003G08MPS 9999 SCT030CB TEMPO 2318/2412 3100 -TSRA SCT011 BKN020CB

Decode

Destination Runways

ID Width Length Bearing (true) Bearing (mag) Surface Threshold Offset Overrun Length
05L 160 ft / 49 m 7,177 ft / 2,187 m 52.37° 44.97° Asphalt 0 ft / 0 m 160 ft / 49 m
05R 145 ft / 44 m 9,822 ft / 2,994 m 52.45° 45.05° Concrete 0 ft / 0 m 160 ft / 49 m
23L 145 ft / 44 m 9,822 ft / 2,994 m 232.47° 225.07° Concrete 0 ft / 0 m 160 ft / 49 m
23R 160 ft / 49 m 7,177 ft / 2,187 m 232.38° 224.98° Asphalt 0 ft / 0 m 160 ft / 49 m

Popular Alternatives